owner,sensor,date,latitude,longitude,vertical_datum,sea_water_temperature,qcFlag 
ADCP,ioos:station:wmo:42395:1,2015-10-06T15:40:00Z,26.4040,-90.7920,0.0,28.5,11111222 
ADCP,ioos:station:wmo:42395:1,2015-10-06T16:00:00Z,26.4040,-90.7920,0.0,28.5,11111222 
ADCP,ioos:station:wmo:42395:1,2015-10-06T16:20:00Z,26.4040,-90.7920,0.0,28.6,11111222 
ADCP,ioos:station:wmo:42395:1,2015-10-06T16:40:00Z,26.4040,-90.7920,0.0,28.6,11111222 
ADCP,ioos:station:wmo:42395:1,2015-10-06T17:00:00Z,26.4040,-90.7920,0.0,28.5,11111222 
ADCP,ioos:station:wmo:42395:1,2015-10-06T17:20:00Z,26.4040,-90.7920,0.0,28.5,11111222 
ADCP,ioos:station:wmo:42395:1,2015-10-06T17:40:00Z,26.4040,-90.7920,0.0,28.5,11111222 
ADCP,ioos:station:wmo:42395:1,2015-10-06T18:00:00Z,26.4040,-90.7920,0.0,28.6,11111222 
ADCP,ioos:station:wmo:42395:1,2015-10-06T18:20:00Z,26.4040,-90.7920,0.0,28.6,11111222 
ADCP,ioos:station:wmo:42395:1,2015-10-06T18:40:00Z,26.4040,-90.7920,0.0,28.5,11111222 
ADCP,ioos:station:wmo:42395:1,2015-10-06T19:00:00Z,26.4040,-90.7920,0.0,28.5,11111222 
ADCP,ioos:station:wmo:42395:1,2015-10-06T19:20:00Z,26.4040,-90.7920,0.0,28.5,11111222 
ADCP,ioos:station:wmo:42395:1,2015-10-06T19:40:00Z,26.4040,-90.7920,0.0,28.5,11111222 
ADCP,ioos:station:wmo:42395:1,2015-10-06T20:00:00Z,26.4040,-90.7920,0.0,28.5,11111222 
ADCP,ioos:station:wmo:42395:1,2015-10-06T20:20:00Z,26.4040,-90.7920,0.0,28.5,11111222 
ADCP,ioos:station:wmo:42395:1,2015-10-06T20:40:00Z,26.4040,-90.7920,0.0,28.6,11111222 
ADCP,ioos:station:wmo:42395:1,2015-10-06T21:00:00Z,26.4040,-90.7920,0.0,28.6,11111222 
ADCP,ioos:station:wmo:42395:1,2015-10-06T21:20:00Z,26.4040,-90.7920,0.0,28.5,11111222 
ADCP,ioos:station:wmo:42395:1,2015-10-06T21:40:00Z,26.4040,-90.7920,0.0,28.5,11111222 
ADCP,ioos:station:wmo:42395:1,2015-10-06T22:00:00Z,26.4040,-90.7920,0.0,28.5,11111222 
ADCP,ioos:station:wmo:42395:1,2015-10-06T22:20:00Z,26.4040,-90.7920,0.0,28.5,11111222 
ADCP,ioos:station:wmo:42395:1,2015-10-06T22:40:00Z,26.4040,-90.7920,0.0,28.5,11111222 
ADCP,ioos:station:wmo:42395:1,2015-10-06T23:00:00Z,26.4040,-90.7920,0.0,28.5,11111222 
ADCP,ioos:station:wmo:42395:1,2015-10-06T23:20:00Z,26.4040,-90.7920,0.0,28.5,11111222 
ADCP,ioos:station:wmo:42395:1,2015-10-06T23:40:00Z,26.4040,-90.7920,0.0,28.5,11111222 
ADCP,ioos:station:wmo:42395:1,2015-10-07T00:00:00Z,26.4040,-90.7920,0.0,28.5,11111222 
ADCP,ioos:station:wmo:42395:1,2015-10-07T00:20:00Z,26.4040,-90.7920,0.0,28.5,11111222 
ADCP,ioos:station:wmo:42395:1,2015-10-07T00:40:00Z,26.4040,-90.7920,0.0,28.5,11111222 
ADCP,ioos:station:wmo:42395:1,2015-10-07T01:00:00Z,26.4040,-90.7920,0.0,28.5,11111222 
ADCP,ioos:station:wmo:42395:1,2015-10-07T01:20:00Z,26.4040,-90.7920,0.0,28.5,11111222 
ADCP,ioos:station:wmo:42395:1,2015-10-07T01:40:00Z,26.4040,-90.7920,0.0,28.6,11111222 
ADCP,ioos:station:wmo:42395:1,2015-10-07T02:00:00Z,26.4040,-90.7920,0.0,28.6,11111222 
ADCP,ioos:station:wmo:42395:1,2015-10-07T02:20:00Z,26.4040,-90.7920,0.0,28.6,11111222 
ADCP,ioos:station:wmo:42395:1,2015-10-07T02:40:00Z,26.4040,-90.7920,0.0,28.6,11111222 
ADCP,ioos:station:wmo:42395:1,2015-10-07T03:20:00Z,26.4040,-90.7920,0.0,28.6,11111222 
ADCP,ioos:station:wmo:42395:1,2015-10-07T03:40:00Z,26.4040,-90.7920,0.0,28.6,11111222 
ADCP,ioos:station:wmo:42395:1,2015-10-07T04:00:00Z,26.4040,-90.7920,0.0,28.6,11111222 
ADCP,ioos:station:wmo:42395:1,2015-10-07T04:20:00Z,26.4040,-90.7920,0.0,28.6,11111222 
ADCP,ioos:station:wmo:42395:1,2015-10-07T04:40:00Z,26.4040,-90.7920,0.0,28.5,11111222 
ADCP,ioos:station:wmo:42395:1,2015-10-07T05:00:00Z,26.4040,-90.7920,0.0,28.5,11111222 
ADCP,ioos:station:wmo:42395:1,2015-10-07T05:20:00Z,26.4040,-90.7920,0.0,28.5,11111222 
ADCP,ioos:station:wmo:42395:1,2015-10-07T05:40:00Z,26.4040,-90.7920,0.0,28.5,11111222 
ADCP,ioos:station:wmo:42395:1,2015-10-07T06:00:00Z,26.4040,-90.7920,0.0,28.5,11111222 
ADCP,ioos:station:wmo:42395:1,2015-10-07T06:20:00Z,26.4040,-90.7920,0.0,28.6,11111222 
ADCP,ioos:station:wmo:42395:1,2015-10-07T06:40:00Z,26.4040,-90.7920,0.0,28.6,11111222 
ADCP,ioos:station:wmo:42395:1,2015-10-07T07:00:00Z,26.4040,-90.7920,0.0,28.6,11111222 
ADCP,ioos:station:wmo:42395:1,2015-10-07T07:20:00Z,26.4040,-90.7920,0.0,28.6,11111222 
ADCP,ioos:station:wmo:42395:1,2015-10-07T07:40:00Z,26.4040,-90.7920,0.0,28.5,11111222 
ADCP,ioos:station:wmo:42395:1,2015-10-07T08:00:00Z,26.4040,-90.7920,0.0,28.5,11111222 
ADCP,ioos:station:wmo:42395:1,2015-10-07T08:20:00Z,26.4040,-90.7920,0.0,28.5,11111222 
ADCP,ioos:station:wmo:42395:1,2015-10-07T08:40:00Z,26.4040,-90.7920,0.0,28.5,11111222 
ADCP,ioos:station:wmo:42395:1,2015-10-07T09:00:00Z,26.4040,-90.7920,0.0,28.6,11111222 
ADCP,ioos:station:wmo:42395:1,2015-10-07T09:20:00Z,26.4040,-90.7920,0.0,28.5,11111222 
ADCP,ioos:station:wmo:42395:1,2015-10-07T09:40:00Z,26.4040,-90.7920,0.0,28.5,11111222 
ADCP,ioos:station:wmo:42395:1,2015-10-07T10:00:00Z,26.4040,-90.7920,0.0,28.4,11111222 
ADCP,ioos:station:wmo:42395:1,2015-10-07T10:20:00Z,26.4040,-90.7920,0.0,28.5,11111222 
ADCP,ioos:station:wmo:42395:1,2015-10-07T10:40:00Z,26.4040,-90.7920,0.0,28.5,11111222 
ADCP,ioos:station:wmo:42395:1,2015-10-07T11:00:00Z,26.4040,-90.7920,0.0,28.4,11111222 
ADCP,ioos:station:wmo:42395:1,2015-10-07T11:20:00Z,26.4040,-90.7920,0.0,28.5,11111222 
ADCP,ioos:station:wmo:42395:1,2015-10-07T11:40:00Z,26.4040,-90.7920,0.0,28.5,11111222 
ADCP,ioos:station:wmo:42395:1,2015-10-07T12:00:00Z,26.4040,-90.7920,0.0,28.4,11111222 
ADCP,ioos:station:wmo:42395:1,2015-10-07T12:20:00Z,26.4040,-90.7920,0.0,28.5,11111222 
ADCP,ioos:station:wmo:42395:1,2015-10-07T12:40:00Z,26.4040,-90.7920,0.0,28.5,11111222 
ADCP,ioos:station:wmo:42395:1,2015-10-07T13:00:00Z,26.4040,-90.7920,0.0,28.5,11111222 
ADCP,ioos:station:wmo:42395:1,2015-10-07T13:20:00Z,26.4040,-90.7920,0.0,28.5,11111222 
ADCP,ioos:station:wmo:42395:1,2015-10-07T13:40:00Z,26.4040,-90.7920,0.0,28.5,11111222 
ADCP,ioos:station:wmo:42395:1,2015-10-07T14:00:00Z,26.4040,-90.7920,0.0,28.4,11111222 
ADCP,ioos:station:wmo:42395:1,2015-10-07T14:20:00Z,26.4040,-90.7920,0.0,28.4,11111222 
ADCP,ioos:station:wmo:42395:1,2015-10-07T14:40:00Z,26.4040,-90.7920,0.0,28.5,11111222 
ADCP,ioos:station:wmo:42395:1,2015-10-07T15:00:00Z,26.4040,-90.7920,0.0,28.4,11111222 
ADCP,ioos:station:wmo:42395:1,2015-10-07T15:20:00Z,26.4040,-90.7920,0.0,28.4,11111222 
ADCP,ioos:station:wmo:42395:1,2015-10-07T15:40:00Z,26.4040,-90.7920,0.0,28.4,11111222 
ADCP,ioos:station:wmo:42395:1,2015-10-07T16:00:00Z,26.4040,-90.7920,0.0,28.4,11111222 
ADCP,ioos:station:wmo:42395:1,2015-10-07T16:20:00Z,26.4040,-90.7920,0.0,28.4,11111222 
ADCP,ioos:station:wmo:42395:1,2015-10-07T16:40:00Z,26.4040,-90.7920,0.0,28.4,11111222 
ADCP,ioos:station:wmo:42395:1,2015-10-07T17:20:00Z,26.4040,-90.7920,0.0,28.4,11111222 
ADCP,ioos:station:wmo:42395:1,2015-10-07T17:40:00Z,26.4040,-90.7920,0.0,28.4,11111222 
ADCP,ioos:station:wmo:42395:1,2015-10-07T18:00:00Z,26.4040,-90.7920,0.0,28.5,11111222 
ADCP,ioos:station:wmo:42395:1,2015-10-07T18:20:00Z,26.4040,-90.7920,0.0,28.5,11111222 
ADCP,ioos:station:wmo:42395:1,2015-10-07T18:40:00Z,26.4040,-90.7920,0.0,28.5,11111222 
ADCP,ioos:station:wmo:42395:1,2015-10-07T19:00:00Z,26.4040,-90.7920,0.0,28.5,11111222 
ADCP,ioos:station:wmo:42395:1,2015-10-07T19:20:00Z,26.4040,-90.7920,0.0,28.5,11111222 
ADCP,ioos:station:wmo:42395:1,2015-10-07T19:40:00Z,26.4040,-90.7920,0.0,28.5,11111222 
ADCP,ioos:station:wmo:42395:1,2015-10-07T20:00:00Z,26.4040,-90.7920,0.0,28.5,11111222 
ADCP,ioos:station:wmo:42395:1,2015-10-07T20:20:00Z,26.4040,-90.7920,0.0,28.6,11111222 
ADCP,ioos:station:wmo:42395:1,2015-10-07T20:40:00Z,26.4040,-90.7920,0.0,28.5,11111222 
ADCP,ioos:station:wmo:42395:1,2015-10-07T21:00:00Z,26.4040,-90.7920,0.0,28.5,11111222 
ADCP,ioos:station:wmo:42395:1,2015-10-07T21:20:00Z,26.4040,-90.7920,0.0,28.5,11111222 
ADCP,ioos:station:wmo:42395:1,2015-10-07T21:40:00Z,26.4040,-90.7920,0.0,28.5,11111222 
ADCP,ioos:station:wmo:42395:1,2015-10-07T22:00:00Z,26.4040,-90.7920,0.0,28.5,11111222 
ADCP,ioos:station:wmo:42395:1,2015-10-07T22:20:00Z,26.4040,-90.7920,0.0,28.5,11111222 
ADCP,ioos:station:wmo:42395:1,2015-10-07T22:40:00Z,26.4040,-90.7920,0.0,28.5,11111222 
ADCP,ioos:station:wmo:42395:1,2015-10-07T23:00:00Z,26.4040,-90.7920,0.0,28.4,11111222 
ADCP,ioos:station:wmo:42395:1,2015-10-07T23:20:00Z,26.4040,-90.7920,0.0,28.4,11111222 
ADCP,ioos:station:wmo:42395:1,2015-10-07T23:40:00Z,26.4040,-90.7920,0.0,28.4,11111222 
ADCP,ioos:station:wmo:42395:1,2015-10-08T00:00:00Z,26.4040,-90.7920,0.0,28.4,11111222 
ADCP,ioos:station:wmo:42395:1,2015-10-08T00:20:00Z,26.4040,-90.7920,0.0,28.4,11111222 
ADCP,ioos:station:wmo:42395:1,2015-10-08T00:40:00Z,26.4040,-90.7920,0.0,28.4,11111222 
ADCP,ioos:station:wmo:42395:1,2015-10-08T01:00:00Z,26.4040,-90.7920,0.0,28.5,11111222 
ADCP,ioos:station:wmo:42395:1,2015-10-08T01:20:00Z,26.4040,-90.7920,0.0,28.5,11111222 
ADCP,ioos:station:wmo:42395:1,2015-10-08T01:40:00Z,26.4040,-90.7920,0.0,28.5,11111222 
ADCP,ioos:station:wmo:42395:1,2015-10-08T02:00:00Z,26.4040,-90.7920,0.0,28.5,11111222 
ADCP,ioos:station:wmo:42395:1,2015-10-08T02:20:00Z,26.4040,-90.7920,0.0,28.6,11111222 
ADCP,ioos:station:wmo:42395:1,2015-10-08T02:40:00Z,26.4040,-90.7920,0.0,28.6,11111222 
ADCP,ioos:station:wmo:42395:1,2015-10-08T03:00:00Z,26.4040,-90.7920,0.0,28.6,11111222 
ADCP,ioos:station:wmo:42395:1,2015-10-08T03:20:00Z,26.4040,-90.7920,0.0,28.6,11111222 
ADCP,ioos:station:wmo:42395:1,2015-10-08T03:40:00Z,26.4040,-90.7920,0.0,28.6,11111222 
ADCP,ioos:station:wmo:42395:1,2015-10-08T04:00:00Z,26.4040,-90.7920,0.0,28.6,11111222 
ADCP,ioos:station:wmo:42395:1,2015-10-08T04:20:00Z,26.4040,-90.7920,0.0,28.6,11111222 
ADCP,ioos:station:wmo:42395:1,2015-10-08T05:00:00Z,26.4040,-90.7920,0.0,28.6,11111222 
ADCP,ioos:station:wmo:42395:1,2015-10-08T05:40:00Z,26.4040,-90.7920,0.0,28.6,11111222 
ADCP,ioos:station:wmo:42395:1,2015-10-08T06:00:00Z,26.4040,-90.7920,0.0,28.5,11111222 
ADCP,ioos:station:wmo:42395:1,2015-10-08T06:20:00Z,26.4040,-90.7920,0.0,28.6,11111222 
ADCP,ioos:station:wmo:42395:1,2015-10-08T07:00:00Z,26.4040,-90.7920,0.0,28.6,11111222 
ADCP,ioos:station:wmo:42395:1,2015-10-08T07:20:00Z,26.4040,-90.7920,0.0,28.6,11111222 
ADCP,ioos:station:wmo:42395:1,2015-10-08T07:40:00Z,26.4040,-90.7920,0.0,28.6,11111222 
ADCP,ioos:station:wmo:42395:1,2015-10-08T08:00:00Z,26.4040,-90.7920,0.0,28.6,11111222 
ADCP,ioos:station:wmo:42395:1,2015-10-08T08:20:00Z,26.4040,-90.7920,0.0,28.6,11111222 
ADCP,ioos:station:wmo:42395:1,2015-10-08T09:00:00Z,26.4040,-90.7920,0.0,28.6,11111222 
ADCP,ioos:station:wmo:42395:1,2015-10-08T09:20:00Z,26.4040,-90.7920,0.0,28.6,11111222 
ADCP,ioos:station:wmo:42395:1,2015-10-08T09:40:00Z,26.4040,-90.7920,0.0,28.5,11111222 
ADCP,ioos:station:wmo:42395:1,2015-10-08T10:00:00Z,26.4040,-90.7920,0.0,28.4,11111222 
ADCP,ioos:station:wmo:42395:1,2015-10-08T10:20:00Z,26.4040,-90.7920,0.0,28.5,11111222 
ADCP,ioos:station:wmo:42395:1,2015-10-08T11:00:00Z,26.4040,-90.7920,0.0,28.5,11111222 
ADCP,ioos:station:wmo:42395:1,2015-10-08T11:20:00Z,26.4040,-90.7920,0.0,28.5,11111222 
ADCP,ioos:station:wmo:42395:1,2015-10-08T11:40:00Z,26.4040,-90.7920,0.0,28.5,11111222 
ADCP,ioos:station:wmo:42395:1,2015-10-08T12:00:00Z,26.4040,-90.7920,0.0,28.5,11111222 
ADCP,ioos:station:wmo:42395:1,2015-10-08T12:20:00Z,26.4040,-90.7920,0.0,28.5,11111222 
ADCP,ioos:station:wmo:42395:1,2015-10-08T13:00:00Z,26.4040,-90.7920,0.0,28.5,11111222 
ADCP,ioos:station:wmo:42395:1,2015-10-08T13:20:00Z,26.4040,-90.7920,0.0,28.6,11111222 
ADCP,ioos:station:wmo:42395:1,2015-10-08T13:40:00Z,26.4040,-90.7920,0.0,28.5,11111222 
ADCP,ioos:station:wmo:42395:1,2015-10-08T14:00:00Z,26.4040,-90.7920,0.0,28.5,11111222 
ADCP,ioos:station:wmo:42395:1,2015-10-08T14:20:00Z,26.4040,-90.7920,0.0,28.5,11111222 
ADCP,ioos:station:wmo:42395:1,2015-10-08T14:40:00Z,26.4040,-90.7920,0.0,28.5,11111222 
ADCP,ioos:station:wmo:42395:1,2015-10-08T15:20:00Z,26.4040,-90.7920,0.0,28.6,11111222 
ADCP,ioos:station:wmo:42395:1,2015-10-08T15:40:00Z,26.4040,-90.7920,0.0,28.6,11111222 
ADCP,ioos:station:wmo:42395:1,2015-10-08T16:00:00Z,26.4040,-90.7920,0.0,28.6,11111222 
ADCP,ioos:station:wmo:42395:1,2015-10-08T16:20:00Z,26.4040,-90.7920,0.0,28.6,11111222 
ADCP,ioos:station:wmo:42395:1,2015-10-08T16:40:00Z,26.4040,-90.7920,0.0,28.6,11111222 
ADCP,ioos:station:wmo:42395:1,2015-10-08T17:00:00Z,26.4040,-90.7920,0.0,28.6,11111222 
ADCP,ioos:station:wmo:42395:1,2015-10-08T17:20:00Z,26.4040,-90.7920,0.0,28.6,11111222 
ADCP,ioos:station:wmo:42395:1,2015-10-08T17:40:00Z,26.4040,-90.7920,0.0,28.6,11111222 
ADCP,ioos:station:wmo:42395:1,2015-10-08T18:00:00Z,26.4040,-90.7920,0.0,28.7,11111222 
ADCP,ioos:station:wmo:42395:1,2015-10-08T18:20:00Z,26.4040,-90.7920,0.0,28.7,11111222 
ADCP,ioos:station:wmo:42395:1,2015-10-08T19:00:00Z,26.4040,-90.7920,0.0,28.7,11111222 
ADCP,ioos:station:wmo:42395:1,2015-10-08T19:20:00Z,26.4040,-90.7920,0.0,28.7,11111222 
ADCP,ioos:station:wmo:42395:1,2015-10-08T19:40:00Z,26.4040,-90.7920,0.0,28.7,11111222 
ADCP,ioos:station:wmo:42395:1,2015-10-08T20:00:00Z,26.4040,-90.7920,0.0,28.8,11111222 
ADCP,ioos:station:wmo:42395:1,2015-10-08T20:20:00Z,26.4040,-90.7920,0.0,28.8,11111222 
ADCP,ioos:station:wmo:42395:1,2015-10-08T20:40:00Z,26.4040,-90.7920,0.0,28.8,11111222 
ADCP,ioos:station:wmo:42395:1,2015-10-08T21:20:00Z,26.4040,-90.7920,0.0,28.8,11111222 
ADCP,ioos:station:wmo:42395:1,2015-10-08T21:40:00Z,26.4040,-90.7920,0.0,28.8,11111222 
ADCP,ioos:station:wmo:42395:1,2015-10-08T22:00:00Z,26.4040,-90.7920,0.0,28.8,11111222 
ADCP,ioos:station:wmo:42395:1,2015-10-08T22:20:00Z,26.4040,-90.7920,0.0,28.8,11111222 
ADCP,ioos:station:wmo:42395:1,2015-10-08T22:40:00Z,26.4040,-90.7920,0.0,28.7,11111222 
ADCP,ioos:station:wmo:42395:1,2015-10-08T23:20:00Z,26.4040,-90.7920,0.0,28.7,11111222 
ADCP,ioos:station:wmo:42395:1,2015-10-08T23:40:00Z,26.4040,-90.7920,0.0,28.7,11111222 
ADCP,ioos:station:wmo:42395:1,2015-10-09T00:00:00Z,26.4040,-90.7920,0.0,28.6,11111222 
ADCP,ioos:station:wmo:42395:1,2015-10-09T00:20:00Z,26.4040,-90.7920,0.0,28.7,11111222 
ADCP,ioos:station:wmo:42395:1,2015-10-09T00:40:00Z,26.4040,-90.7920,0.0,28.7,11111222 
ADCP,ioos:station:wmo:42395:1,2015-10-09T01:20:00Z,26.4040,-90.7920,0.0,28.7,11111222 
ADCP,ioos:station:wmo:42395:1,2015-10-09T01:40:00Z,26.4040,-90.7920,0.0,28.7,11111222 
ADCP,ioos:station:wmo:42395:1,2015-10-09T02:00:00Z,26.4040,-90.7920,0.0,28.6,11111222 
ADCP,ioos:station:wmo:42395:1,2015-10-09T02:20:00Z,26.4040,-90.7920,0.0,28.7,11111222 
ADCP,ioos:station:wmo:42395:1,2015-10-09T02:40:00Z,26.4040,-90.7920,0.0,28.6,11111222 
ADCP,ioos:station:wmo:42395:1,2015-10-09T03:20:00Z,26.4040,-90.7920,0.0,28.7,11111222 
ADCP,ioos:station:wmo:42395:1,2015-10-09T03:40:00Z,26.4040,-90.7920,0.0,28.7,11111222 
ADCP,ioos:station:wmo:42395:1,2015-10-09T04:00:00Z,26.4040,-90.7920,0.0,28.7,11111222 
ADCP,ioos:station:wmo:42395:1,2015-10-09T04:20:00Z,26.4040,-90.7920,0.0,28.7,11111222 
ADCP,ioos:station:wmo:42395:1,2015-10-09T04:40:00Z,26.4040,-90.7920,0.0,28.7,11111222 
ADCP,ioos:station:wmo:42395:1,2015-10-09T05:00:00Z,26.4040,-90.7920,0.0,28.7,11111222 
ADCP,ioos:station:wmo:42395:1,2015-10-09T05:40:00Z,26.4040,-90.7920,0.0,28.8,11111222 
ADCP,ioos:station:wmo:42395:1,2015-10-09T06:00:00Z,26.4040,-90.7920,0.0,28.8,11111222 
ADCP,ioos:station:wmo:42395:1,2015-10-09T06:20:00Z,26.4040,-90.7920,0.0,28.7,11111222 
ADCP,ioos:station:wmo:42395:1,2015-10-09T06:40:00Z,26.4040,-90.7920,0.0,28.7,11111222 
ADCP,ioos:station:wmo:42395:1,2015-10-09T07:00:00Z,26.4040,-90.7920,0.0,28.7,11111222 
ADCP,ioos:station:wmo:42395:1,2015-10-09T07:20:00Z,26.4040,-90.7920,0.0,28.7,11111222 
ADCP,ioos:station:wmo:42395:1,2015-10-09T07:40:00Z,26.4040,-90.7920,0.0,28.7,11111222 
ADCP,ioos:station:wmo:42395:1,2015-10-09T08:00:00Z,26.4040,-90.7920,0.0,28.7,11111222 
ADCP,ioos:station:wmo:42395:1,2015-10-09T08:20:00Z,26.4040,-90.7920,0.0,28.7,11111222 
ADCP,ioos:station:wmo:42395:1,2015-10-09T09:20:00Z,26.4040,-90.7920,0.0,28.7,11111222 
ADCP,ioos:station:wmo:42395:1,2015-10-09T09:40:00Z,26.4040,-90.7920,0.0,28.6,11111222 
ADCP,ioos:station:wmo:42395:1,2015-10-09T10:00:00Z,26.4040,-90.7920,0.0,28.6,11111222 
ADCP,ioos:station:wmo:42395:1,2015-10-09T10:20:00Z,26.4040,-90.7920,0.0,28.6,11111222 
ADCP,ioos:station:wmo:42395:1,2015-10-09T11:20:00Z,26.4040,-90.7920,0.0,28.6,11111222 
ADCP,ioos:station:wmo:42395:1,2015-10-09T11:40:00Z,26.4040,-90.7920,0.0,28.6,11111222 
ADCP,ioos:station:wmo:42395:1,2015-10-09T12:00:00Z,26.4040,-90.7920,0.0,28.6,11111222 
ADCP,ioos:station:wmo:42395:1,2015-10-09T12:20:00Z,26.4040,-90.7920,0.0,28.6,11111222 
ADCP,ioos:station:wmo:42395:1,2015-10-09T13:20:00Z,26.4040,-90.7920,0.0,28.6,11111222 
ADCP,ioos:station:wmo:42395:1,2015-10-09T13:40:00Z,26.4040,-90.7920,0.0,28.6,11111222 
ADCP,ioos:station:wmo:42395:1,2015-10-09T14:00:00Z,26.4040,-90.7920,0.0,28.6,11111222 
ADCP,ioos:station:wmo:42395:1,2015-10-09T14:20:00Z,26.4040,-90.7920,0.0,28.6,11111222 
ADCP,ioos:station:wmo:42395:1,2015-10-09T14:40:00Z,26.4040,-90.7920,0.0,28.6,11111222 
ADCP,ioos:station:wmo:42395:1,2015-10-09T15:20:00Z,26.4040,-90.7920,0.0,28.7,11111222 
ADCP,ioos:station:wmo:42395:1,2015-10-09T15:40:00Z,26.4040,-90.7920,0.0,28.7,11111222 
ADCP,ioos:station:wmo:42395:1,2015-10-09T16:00:00Z,26.4040,-90.7920,0.0,28.7,11111222 
ADCP,ioos:station:wmo:42395:1,2015-10-09T16:20:00Z,26.4040,-90.7920,0.0,28.8,11111222 
ADCP,ioos:station:wmo:42395:1,2015-10-09T16:40:00Z,26.4040,-90.7920,0.0,28.8,11111222 
ADCP,ioos:station:wmo:42395:1,2015-10-09T17:20:00Z,26.4040,-90.7920,0.0,28.9,11111222 
ADCP,ioos:station:wmo:42395:1,2015-10-09T17:40:00Z,26.4040,-90.7920,0.0,28.9,11111222 
ADCP,ioos:station:wmo:42395:1,2015-10-09T18:00:00Z,26.4040,-90.7920,0.0,28.9,11111222 
ADCP,ioos:station:wmo:42395:1,2015-10-09T18:20:00Z,26.4040,-90.7920,0.0,28.9,11111222 
ADCP,ioos:station:wmo:42395:1,2015-10-09T18:40:00Z,26.4040,-90.7920,0.0,29.0,11111222 
ADCP,ioos:station:wmo:42395:1,2015-10-09T19:20:00Z,26.4040,-90.7920,0.0,29.0,11111222 
ADCP,ioos:station:wmo:42395:1,2015-10-09T19:40:00Z,26.4040,-90.7920,0.0,29.0,11111222 
ADCP,ioos:station:wmo:42395:1,2015-10-09T20:00:00Z,26.4040,-90.7920,0.0,29.0,11111222 
ADCP,ioos:station:wmo:42395:1,2015-10-09T20:20:00Z,26.4040,-90.7920,0.0,29.0,11111222 
ADCP,ioos:station:wmo:42395:1,2015-10-09T20:40:00Z,26.4040,-90.7920,0.0,29.1,11111222 
ADCP,ioos:station:wmo:42395:1,2015-10-09T21:20:00Z,26.4040,-90.7920,0.0,29.0,11111222 
ADCP,ioos:station:wmo:42395:1,2015-10-09T21:40:00Z,26.4040,-90.7920,0.0,29.1,11111222 
ADCP,ioos:station:wmo:42395:1,2015-10-09T22:00:00Z,26.4040,-90.7920,0.0,29.0,11111222 
ADCP,ioos:station:wmo:42395:1,2015-10-09T22:20:00Z,26.4040,-90.7920,0.0,29.0,11111222 
ADCP,ioos:station:wmo:42395:1,2015-10-09T22:40:00Z,26.4040,-90.7920,0.0,29.0,11111222 
ADCP,ioos:station:wmo:42395:1,2015-10-09T23:20:00Z,26.4040,-90.7920,0.0,28.9,11111222 
ADCP,ioos:station:wmo:42395:1,2015-10-09T23:40:00Z,26.4040,-90.7920,0.0,28.9,11111222 
ADCP,ioos:station:wmo:42395:1,2015-10-10T00:00:00Z,26.4040,-90.7920,0.0,28.9,11111222 
ADCP,ioos:station:wmo:42395:1,2015-10-10T00:20:00Z,26.4040,-90.7920,0.0,28.9,11111222 
ADCP,ioos:station:wmo:42395:1,2015-10-10T00:40:00Z,26.4040,-90.7920,0.0,28.9,11111222 
ADCP,ioos:station:wmo:42395:1,2015-10-10T01:20:00Z,26.4040,-90.7920,0.0,28.9,11111222 
ADCP,ioos:station:wmo:42395:1,2015-10-10T01:40:00Z,26.4040,-90.7920,0.0,28.9,11111222 
ADCP,ioos:station:wmo:42395:1,2015-10-10T02:00:00Z,26.4040,-90.7920,0.0,28.8,11111222 
ADCP,ioos:station:wmo:42395:1,2015-10-10T02:20:00Z,26.4040,-90.7920,0.0,28.8,11111222 
ADCP,ioos:station:wmo:42395:1,2015-10-10T02:40:00Z,26.4040,-90.7920,0.0,28.8,11111222 
ADCP,ioos:station:wmo:42395:1,2015-10-10T03:20:00Z,26.4040,-90.7920,0.0,28.8,11111222 
ADCP,ioos:station:wmo:42395:1,2015-10-10T03:40:00Z,26.4040,-90.7920,0.0,28.8,11111222 
ADCP,ioos:station:wmo:42395:1,2015-10-10T04:00:00Z,26.4040,-90.7920,0.0,28.7,11111222 
ADCP,ioos:station:wmo:42395:1,2015-10-10T04:20:00Z,26.4040,-90.7920,0.0,28.7,11111222 
ADCP,ioos:station:wmo:42395:1,2015-10-10T04:40:00Z,26.4040,-90.7920,0.0,28.7,11111222 
ADCP,ioos:station:wmo:42395:1,2015-10-10T05:20:00Z,26.4040,-90.7920,0.0,28.7,11111222 
ADCP,ioos:station:wmo:42395:1,2015-10-10T05:40:00Z,26.4040,-90.7920,0.0,28.7,11111222 
ADCP,ioos:station:wmo:42395:1,2015-10-10T06:00:00Z,26.4040,-90.7920,0.0,28.7,11111222 
ADCP,ioos:station:wmo:42395:1,2015-10-10T06:20:00Z,26.4040,-90.7920,0.0,28.7,11111222 
ADCP,ioos:station:wmo:42395:1,2015-10-10T07:00:00Z,26.4040,-90.7920,0.0,28.7,11111222 
ADCP,ioos:station:wmo:42395:1,2015-10-10T07:20:00Z,26.4040,-90.7920,0.0,28.7,11111222 
ADCP,ioos:station:wmo:42395:1,2015-10-10T07:40:00Z,26.4040,-90.7920,0.0,28.7,11111222 
ADCP,ioos:station:wmo:42395:1,2015-10-10T08:00:00Z,26.4040,-90.7920,0.0,28.7,11111222 
ADCP,ioos:station:wmo:42395:1,2015-10-10T08:20:00Z,26.4040,-90.7920,0.0,28.6,11111222 
ADCP,ioos:station:wmo:42395:1,2015-10-10T09:00:00Z,26.4040,-90.7920,0.0,28.7,11111222 
ADCP,ioos:station:wmo:42395:1,2015-10-10T09:20:00Z,26.4040,-90.7920,0.0,28.7,11111222 
ADCP,ioos:station:wmo:42395:1,2015-10-10T09:40:00Z,26.4040,-90.7920,0.0,28.7,11111222 
ADCP,ioos:station:wmo:42395:1,2015-10-10T10:00:00Z,26.4040,-90.7920,0.0,28.6,11111222 
ADCP,ioos:station:wmo:42395:1,2015-10-10T10:20:00Z,26.4040,-90.7920,0.0,28.6,11111222 
ADCP,ioos:station:wmo:42395:1,2015-10-10T11:00:00Z,26.4040,-90.7920,0.0,28.7,11111222 
ADCP,ioos:station:wmo:42395:1,2015-10-10T11:20:00Z,26.4040,-90.7920,0.0,28.7,11111222 
ADCP,ioos:station:wmo:42395:1,2015-10-10T11:40:00Z,26.4040,-90.7920,0.0,28.7,11111222 
ADCP,ioos:station:wmo:42395:1,2015-10-10T12:00:00Z,26.4040,-90.7920,0.0,28.6,11111222 
ADCP,ioos:station:wmo:42395:1,2015-10-10T12:20:00Z,26.4040,-90.7920,0.0,28.6,11111222 
ADCP,ioos:station:wmo:42395:1,2015-10-10T12:40:00Z,26.4040,-90.7920,0.0,28.6,11111222 
ADCP,ioos:station:wmo:42395:1,2015-10-10T13:20:00Z,26.4040,-90.7920,0.0,28.6,11111222 
ADCP,ioos:station:wmo:42395:1,2015-10-10T13:40:00Z,26.4040,-90.7920,0.0,28.6,11111222 
ADCP,ioos:station:wmo:42395:1,2015-10-10T14:00:00Z,26.4040,-90.7920,0.0,28.6,11111222 
ADCP,ioos:station:wmo:42395:1,2015-10-10T14:20:00Z,26.4040,-90.7920,0.0,28.6,11111222 
ADCP,ioos:station:wmo:42395:1,2015-10-10T15:00:00Z,26.4040,-90.7920,0.0,28.6,11111222 
ADCP,ioos:station:wmo:42395:1,2015-10-10T15:20:00Z,26.4040,-90.7920,0.0,28.7,11111222 
ADCP,ioos:station:wmo:42395:1,2015-10-10T15:40:00Z,26.4040,-90.7920,0.0,28.7,11111222 
ADCP,ioos:station:wmo:42395:1,2015-10-10T16:00:00Z,26.4040,-90.7920,0.0,28.8,11111222 
ADCP,ioos:station:wmo:42395:1,2015-10-10T16:20:00Z,26.4040,-90.7920,0.0,28.8,11111222 
ADCP,ioos:station:wmo:42395:1,2015-10-10T17:00:00Z,26.4040,-90.7920,0.0,28.8,11111222 
ADCP,ioos:station:wmo:42395:1,2015-10-10T17:20:00Z,26.4040,-90.7920,0.0,28.8,11111222 
ADCP,ioos:station:wmo:42395:1,2015-10-10T17:40:00Z,26.4040,-90.7920,0.0,28.8,11111222 
ADCP,ioos:station:wmo:42395:1,2015-10-10T18:00:00Z,26.4040,-90.7920,0.0,28.9,11111222 
ADCP,ioos:station:wmo:42395:1,2015-10-10T18:20:00Z,26.4040,-90.7920,0.0,28.9,11111222 
ADCP,ioos:station:wmo:42395:1,2015-10-10T19:00:00Z,26.4040,-90.7920,0.0,28.9,11111222 
ADCP,ioos:station:wmo:42395:1,2015-10-10T19:20:00Z,26.4040,-90.7920,0.0,28.9,11111222 
ADCP,ioos:station:wmo:42395:1,2015-10-10T19:40:00Z,26.4040,-90.7920,0.0,28.9,11111222 
ADCP,ioos:station:wmo:42395:1,2015-10-10T20:00:00Z,26.4040,-90.7920,0.0,28.9,11111222 
ADCP,ioos:station:wmo:42395:1,2015-10-10T20:20:00Z,26.4040,-90.7920,0.0,28.9,11111222 
ADCP,ioos:station:wmo:42395:1,2015-10-10T21:20:00Z,26.4040,-90.7920,0.0,28.9,11111222 
ADCP,ioos:station:wmo:42395:1,2015-10-10T21:40:00Z,26.4040,-90.7920,0.0,28.9,11111222 
ADCP,ioos:station:wmo:42395:1,2015-10-10T22:00:00Z,26.4040,-90.7920,0.0,28.8,11111222 
ADCP,ioos:station:wmo:42395:1,2015-10-10T22:20:00Z,26.4040,-90.7920,0.0,28.8,11111222 
ADCP,ioos:station:wmo:42395:1,2015-10-10T22:40:00Z,26.4040,-90.7920,0.0,28.8,11111222 
ADCP,ioos:station:wmo:42395:1,2015-10-10T23:20:00Z,26.4040,-90.7920,0.0,28.8,11111222 
ADCP,ioos:station:wmo:42395:1,2015-10-10T23:40:00Z,26.4040,-90.7920,0.0,28.8,11111222 